Location: Darlington Observatory
(36.4817°N, 105.8156°W)
Time: 11:00:22
(UTC-06:00)

Daily predictions for brighter satellites

Satellite Brightness Start Highest point End
(mag) Time Altitude Azimuth Time Altitude Azimuth Time Altitude Azimuth
Abrixas rocket 3.4 20:43:01 10° NW 20:46:12 35° NNE 20:49:22 10° E
CZ-4 DEB 3.2 20:45:35 10° SSE 20:48:36 43° ENE 20:51:38 10° N
CZ-2D R/B 3.5 20:45:33 10° S 20:49:21 73° W 20:53:10 10° NNW
Cosmos 1943 3.5 20:44:17 10° NNW 20:49:55 72° WSW 20:55:29 10° SSE
Okean 1-7 3.0 20:47:11 10° N 20:51:29 73° E 20:55:47 10° SSE
Meteor 2-3 Rocket 3.7 20:48:04 10° S 20:53:40 70° E 20:59:15 10° NNE
USA 234 4.3 20:49:32 10° ENE 20:54:04 20° ESE 20:58:33 10° SSE
Meteor 1-26 Rocket 4.4 20:50:11 10° N 20:56:04 87° E 21:01:58 10° S
Cosmos 1340 Rocket 2.8 20:53:16 10° S 20:57:11 65° E 21:01:10 10° NNE
Cosmos 2056 Rocket 4.0 20:52:48 10° SSE 20:57:32 37° ESE 21:02:15 10° NE
Cosmos 1844 Rocket 3.6 20:53:55 10° SSE 20:58:36 27° ESE 21:03:17 10° NE
Cosmos 1371 Rocket 4.1 20:54:15 10° S 20:59:26 56° ESE 21:04:37 10° NNE
Cosmos 1461 3.4 20:56:02 10° SW 21:00:44 74° WNW 21:05:19 10° NNE
Cosmos 1939 Rocket 3.7 20:57:35 10° SE 21:01:02 32° ENE 21:04:33 10° N
Cosmos 1782 4.2 21:02:54 10° NNE 21:06:08 23° ENE 21:08:35 14° ESE
Atlas Centaur 2 2.1 21:06:42 10° SW 21:09:46 27° S 21:12:00 16° ESE
Cosmos 2263 Rocket 3.6 21:07:51 10° SW 21:13:14 43° WNW 21:18:37 10° N
SL-27 R/B 4.2 21:11:52 10° NNE 21:14:40 20° ENE 21:16:20 15° E
Coronas F rocket 1.1 21:12:14 10° S 21:14:50 63° E 21:17:28 10° NNE
YAOGAN 6 4.4 21:14:37 13° E 21:15:55 16° ENE 21:18:06 10° NNE
SL-8 R/B 3.7 21:13:31 10° SW 21:18:21 87° NW 21:23:11 10° NE
COS B Rocket 4.5 21:19:14 10° NNE 21:22:47 26° E 21:24:24 20° ESE
CENTAUR R/B 3.2 21:15:58 10° NNW 21:23:54 71° ENE 21:30:41 17° SE
deb Chang Zheng 4 3.5 21:22:25 10° NNE 21:26:50 75° ESE 21:31:15 10° S
Cosmos 1606 4.1 21:24:59 10° NNE 21:28:13 24° ENE 21:29:28 20° ESE
NOSS 2-2 (D) 3.5 21:26:00 10° SSW 21:30:03 87° WNW 21:34:38 10° NNE
Cosmos 2184 Rocket 4.0 21:24:13 10° S 21:30:22 89° E 21:36:34 10° N
USA 186 4.4 21:29:00 10° SW 21:31:07 18° W 21:33:20 10° NW
Cosmos 1892 3.1 21:29:26 10° SSW 21:33:12 64° W 21:37:01 10° N
Cosmos 1908 Rocket 4.2 21:31:02 20° SE 21:33:29 37° E 21:37:33 10° NNE
Cosmos 1624 Rocket 4.1 21:31:43 10° SSW 21:36:58 81° WNW 21:42:17 10° NNE
Envisat 2.9 21:34:09 15° SSE 21:38:23 83° ENE 21:43:29 10° N
H-2A R/B 4.0 21:36:42 12° E 21:38:45 15° ENE 21:41:43 10° NNE
Cosmos 1733 Rocket 3.2 21:35:03 10° S 21:39:27 76° W 21:43:53 10° N
Meteor 2-10 Rocket 3.9 21:34:38 10° NNW 21:40:28 78° W 21:45:56 11° S
CZ-4 SHROUD 3.9 21:40:54 32° E 21:41:28 36° ENE 21:44:20 10° N
SL-08 ROCKET BODY 4.5 21:36:27 10° S 21:42:32 81° W 21:48:32 10° N
Cosmos 1378 Rocket 4.4 21:40:07 10° NNE 21:43:59 32° ENE 21:45:11 27° ESE
NOSS 2-2 (C) 4.1 21:40:46 10° SW 21:44:46 60° NW 21:49:19 10° NNE
ERBS 2.9 21:45:43 10° NNW 21:49:05 47° NE 21:50:03 35° E
Meteor 2-6 Rocket 4.3 21:43:50 10° N 21:49:49 78° E 21:53:51 21° SSE
CZ-3C R/B 3.8 21:28:55 10° WSW 21:51:56 26° SSW 21:55:50 20° SSE
SPOT 1/Viking Rocket 4.0 21:51:06 28° SE 21:53:22 44° ENE 21:58:18 10° N
Cosmos 407 Rocket 3.6 21:54:36 10° N 21:59:50 63° ENE 22:02:05 34° SE
Cosmos 1452 Rocket 3.5 21:56:45 17° S 22:00:45 62° ESE 22:05:58 10° NNE
Cosmos 1238 Rocket 3.1 21:58:29 10° NNE 22:01:14 37° ENE 22:01:14 37° ENE
SPOT 5 3.1 21:58:36 24° S 22:01:50 83° WSW 22:07:12 10° NNW
PSLV R/B 2.8 22:01:49 76° SSE 22:02:00 89° E 22:04:58 10° NNW
H-2A R/B 2.9 22:01:14 18° S 22:04:14 47° W 22:08:23 10° NNW
ERS-1 Rocket 4.5 22:02:41 10° SSW 22:07:10 32° W 22:11:41 10° NW
Cosmos 2084 4.3 22:08:44 29° ENE 22:08:44 29° ENE 22:10:56 10° NE
COSMOS 2406 3.5 22:04:18 10° NNW 22:09:59 65° WSW 22:13:04 27° S
Cosmos 1190 Rocket 4.0 22:05:18 10° NNW 22:10:31 81° WSW 22:12:47 34° S
Cosmos 1862 3.2 22:09:04 38° S 22:10:34 88° E 22:14:39 10° N
Intercosmos 25 3.9 22:11:43 39° ENE 22:11:43 39° ENE 22:14:30 10° NNE
MetOp-B 4.1 22:09:56 29° S 22:12:43 82° WSW 22:18:06 10° NNW
Cosmos 1140 Rocket 4.4 22:12:05 10° N 22:16:42 32° ENE 22:17:37 30° E
Terra 3.1 22:16:52 25° ENE 22:17:18 25° ENE 22:21:11 10° NNE
PSLV R/B 3.3 22:16:03 10° WNW 22:19:31 75° NNE 22:19:31 75° NNE
Okean 2 Rocket 3.0 22:20:05 57° SE 22:20:37 62° E 22:24:59 10° NNE
ARGOS 3.1 22:20:05 43° SSE 22:21:51 73° ENE 22:27:12 10° N
Nadezhda 3 Rocket 4.0 22:16:46 10° N 22:23:09 82° W 22:26:31 30° S
Abrixas rocket 3.9 22:20:17 10° WNW 22:22:48 26° WSW 22:22:48 26° WSW
BREEZE-M DEB (TANK) 3.7 22:14:14 10° NW 22:24:52 50° NNE 22:26:27 33° ENE
ATLAS 5 CENTAUR R/B 2.7 22:19:43 10° NW 22:25:45 60° WSW 22:28:29 34° S
Cosmos 2278 Rocket 2.1 22:25:14 25° SSW 22:28:39 81° ESE 22:34:21 10° NNE
CZ-4C R/B 4.1 22:30:16 39° NE 22:30:16 39° NE 22:33:28 10° N
Cosmos 1825 2.6 22:29:25 46° SW 22:30:12 58° W 22:34:00 10° N
Cosmos 1844 4.1 22:25:27 10° SSW 22:31:08 63° WNW 22:36:54 10° NNE
CZ-4B R/B 3.6 22:27:22 10° N 22:32:20 70° WNW 22:34:50 29° SSW
CZ-3A R/B 4.4 22:27:11 10° W 22:34:13 19° SW 22:35:12 18° SSW
Cosmos 2341 Rocket 4.2 22:31:20 20° SSW 22:35:49 70° W 22:42:06 10° N
Cosmos 1184 Rocket 3.6 22:37:23 50° NW 22:37:23 50° NW 22:40:10 10° N
USA 234 3.2 22:30:58 10° NE 22:37:31 90° SE 22:44:03 10° SW
Cosmos 1833 Rocket 4.3 22:33:50 10° N 22:37:54 20° NE 22:39:00 19° ENE
Cosmos 676 Rocket 4.0 22:35:03 10° NNW 22:40:14 74° WSW 22:41:20 54° S
Cosmos 1844 Rocket 4.1 22:37:05 10° SW 22:42:16 37° WNW 22:47:29 10° N
Cosmos 1959 Rocket 4.4 22:43:22 53° SE 22:44:39 66° E 22:50:42 10° NNE
Cosmos 1782 Rocket 4.2 22:44:31 39° SW 22:45:45 53° W 22:50:08 10° N
Cosmos 1954 Rocket 3.9 22:42:42 10° NNW 22:47:55 82° WSW 22:48:36 67° S
COSMOS 2487 3.4 22:45:10 10° NNW 22:47:49 46° N 22:47:49 46° N
YAOGAN 6 4.4 22:49:06 24° WSW 22:49:17 24° W 22:52:12 10° NW
Timation 2 Rocket 4.1 22:43:31 10° NNW 22:49:23 53° ENE 22:50:18 48° E
Cosmos 1408 4.2 22:49:55 27° WSW 22:50:41 29° WNW 22:53:56 10° NNW
Cosmos 2082 Rocket 3.2 22:45:46 10° N 22:50:50 32° ENE 22:51:28 31° ENE
IGS 5A 4.2 22:54:28 44° NE 22:54:28 44° NE 22:57:42 10° N
Cosmos 1741 Rocket 4.2 22:50:03 10° N 22:55:11 53° ENE 22:55:12 53° ENE
Cosmos 2297 3.5 22:58:48 71° SE 22:59:00 72° ESE 23:04:43 10° NNE
APEX 4.4 23:03:19 40° NNE 23:03:19 40° NNE 23:06:27 10° NNE
SL-08 RB Rocket 4.4 23:03:06 46° WSW 23:03:21 46° W 23:07:48 10° NNW
SL-8 Rocket 4.1 23:01:45 43° SSW 23:03:56 71° W 23:10:12 10° N
CARTOSAT-1 3.9 23:04:52 61° N 23:04:52 61° N 23:08:28 10° N
Cosmos 1975 Rocket 3.9 23:00:26 10° NNW 23:04:31 43° W 23:04:34 43° W
DNEPR-1 R/B 4.2 23:00:02 10° NNW 23:04:57 52° NE 23:04:57 52° NE
Cosmos 1242 Rocket 4.3 23:09:20 10° NNW 23:11:41 32° NW 23:11:41 32° NW
Cosmos 1536 Rocket 4.3 23:12:52 10° N 23:16:12 48° NNE 23:16:12 48° NNE
H-2A R/B 2.2 23:17:21 66° WSW 23:17:34 67° WSW 23:22:56 10° NNW
USA 229 DEB 4.3 23:14:52 10° NNW 23:21:41 47° NE 23:23:13 41° E
USA 229 4.3 23:14:58 10° NNW 23:21:47 46° NE 23:23:20 41° E
Meteor 2-19 Rocket 4.3 23:21:46 81° SE 23:21:58 82° E 23:28:07 10° N
Cosmos 2151 Rocket 4.4 23:26:22 49° NW 23:26:22 49° NW 23:30:08 10° N
Meteor 2-8 Rocket 4.4 23:29:40 10° N 23:35:49 76° W 23:35:59 75° WSW
Meteor 1-20 Rocket 4.3 23:36:24 75° NNW 23:36:24 75° NNW 23:41:32 10° N
Meteor 1-25 Rocket 4.4 23:38:22 69° W 23:38:28 69° W 23:44:18 10° N
Cosmos 2369 Rocket 4.4 23:43:16 13° ENE 23:43:16 13° ENE 23:44:03 10° ENE
ASTEX 1 4.2 23:48:00 10° N 23:51:57 49° NW 23:51:57 49° NW
Terra 3.5 23:55:45 27° WNW 23:55:45 27° WNW 23:59:02 10° NW
